Location: Bill Sadowski Park
(25.6087°N, 80.3181°W)
Time: 09:34:35
(UTC-05:00)

N. Korean satellite - Visible Passes

Search period start: 22 January 2018 00:00
Search period end: 01 February 2018 00:00
Orbit: 458 x 515 km, 97.2° (Epoch: 21 January)

Date Brightness Start Highest point End Pass type
(mag) Time Alt. Az. Time Alt. Az. Time Alt. Az.
22 Jan 9.9 06:07:05 10° ENE 06:08:59 14° E 06:10:52 10° SE visible
23 Jan 9.9 19:18:07 10° SW 19:20:20 16° W 19:22:32 10° WNW visible
24 Jan 8.5 18:53:20 10° SSW 18:56:38 34° W 18:59:54 10° NNW visible
25 Jan 8.8 06:28:23 10° NE 06:31:30 30° E 06:34:36 10° SSE visible
25 Jan 6.6 18:29:23 10° S 18:32:58 85° W 18:36:31 10° NNW visible
26 Jan 10.0 06:05:55 10° ENE 06:07:46 14° E 06:09:37 10° SE visible
27 Jan 9.9 19:16:53 10° SW 19:19:07 16° W 19:21:20 10° WNW visible
28 Jan 8.4 18:52:08 10° SSW 18:55:24 35° W 18:58:39 10° NNW visible
29 Jan 8.8 06:27:08 10° NE 06:30:15 30° E 06:33:23 10° SSE visible
29 Jan 6.5 18:28:11 10° S 18:31:44 88° WSW 18:35:14 10° NNW visible
30 Jan 10.0 06:04:42 10° ENE 06:06:31 14° E 06:08:20 10° SE visible
31 Jan 9.9 19:15:37 10° SW 19:17:52 16° W 19:20:05 10° WNW visible
